| time (UTC) | temp F | wind direction | speed knots | gust knots | rain 1hr in | rain 24hr in | rain mn in | humidity % | barometer mb |
| 20260904062545 | 68 | 227 | 5.2 | 14.8 | 0.00 | 0.18 | 0.00 | 85 | 1013.6 |
| 20260904062043 | 68 | 0 | 5.2 | 14.8 | 0.00 | 0.18 | 0.00 | 85 | 1013.6 |
| 20260904061603 | 68 | 225 | 5.2 | 14.8 | 0.00 | 0.18 | 0.00 | 86 | 1013.8 |
| 20260904061045 | 68 | 194 | 4.3 | 14.8 | 0.00 | 0.18 | 0.00 | 85 | 1013.8 |
| 20260904060545 | 68 | 245 | 5.2 | 14.8 | 0.00 | 0.18 | 0.00 | 85 | 1013.9 |
| 20260904060121 | 68 | 251 | 4.3 | 13.0 | 0.00 | 0.18 | 0.00 | 86 | 1013.9 |
| 20260904055543 | 68 | 232 | 1.7 | 13.9 | 0.00 | 0.18 | 0.00 | 86 | 1013.9 |
| 20260904055044 | 68 | 195 | 4.3 | 13.9 | 0.00 | 0.18 | 0.00 | 86 | 1014.0 |
| 20260904054601 | 68 | 221 | 3.5 | 14.8 | 0.00 | 0.18 | 0.00 | 86 | 1014.1 |
| 20260904054044 | 68 | 0 | 2.6 | 15.6 | 0.00 | 0.18 | 0.00 | 86 | 1014.2 |
| 20260904053542 | 68 | 0 | 2.6 | 15.6 | 0.00 | 0.18 | 0.00 | 86 | 1014.2 |
| 20260904053145 | 68 | 242 | 4.3 | 14.8 | 0.00 | 0.18 | 0.00 | 86 | 1014.2 |
| 20260904052546 | 68 | 243 | 2.6 | 15.6 | 0.00 | 0.18 | 0.00 | 86 | 1014.3 |
| 20260904052046 | 68 | 0 | 0.9 | 15.6 | 0.00 | 0.18 | 0.00 | 86 | 1014.3 |
| 20260904051614 | 68 | 0 | 2.6 | 15.6 | 0.00 | 0.18 | 0.00 | 87 | 1014.5 |
| 20260904051045 | 68 | 207 | 3.5 | 15.6 | 0.00 | 0.18 | 0.00 | 86 | 1014.3 |
| 20260904050544 | 68 | 0 | 5.2 | 15.6 | 0.00 | 0.18 | 0.00 | 86 | 1014.3 |
| 20260904050058 | 68 | 263 | 2.6 | 20.0 | 0.00 | 0.18 | 0.00 | 86 | 1014.4 |
| 20260904045542 | 68 | 283 | 5.2 | 20.0 | 0.00 | 0.18 | 0.00 | 86 | 1014.5 |
| 20260904045042 | 68 | 220 | 4.3 | 15.6 | 0.00 | 0.18 | 0.00 | 87 | 1014.5 |
| 20260904044611 | 68 | 239 | 3.5 | 14.8 | 0.00 | 0.18 | 0.00 | 87 | 1014.5 |
| 20260904044046 | 68 | 0 | 4.3 | 14.8 | 0.00 | 0.18 | 0.00 | 87 | 1014.4 |
| 20260904043545 | 68 | 258 | 1.7 | 13.0 | 0.00 | 0.18 | 0.00 | 87 | 1014.4 |
| 20260904043114 | 68 | 0 | 3.5 | 13.0 | 0.00 | 0.18 | 0.00 | 87 | 1014.3 |
| 20260904042545 | 68 | 215 | 3.5 | 16.5 | 0.00 | 0.18 | 0.00 | 87 | 1014.5 |
| 20260904042045 | 68 | 0 | 4.3 | 16.5 | 0.00 | 0.18 | 0.00 | 87 | 1014.6 |
| 20260904041605 | 68 | 238 | 1.7 | 14.8 | 0.00 | 0.18 | 0.00 | 87 | 1014.6 |
| 20260904041045 | 68 | 242 | 2.6 | 14.8 | 0.00 | 0.18 | 0.00 | 87 | 1014.8 |
| 20260904040542 | 68 | 230 | 6.1 | 15.6 | 0.00 | 0.18 | 0.00 | 87 | 1014.7 |
| 20260904040105 | 68 | 243 | 3.5 | 15.6 | 0.00 | 0.18 | 0.00 | 87 | 1014.8 |
| 20260904035545 | 68 | 252 | 4.3 | 15.6 | 0.00 | 0.18 | 0.00 | 87 | 1014.9 |
| 20260904035043 | 68 | 207 | 1.7 | 12.2 | 0.00 | 0.18 | 0.00 | 87 | 1015.0 |
| 20260904034603 | 68 | 0 | 2.6 | 12.2 | 0.00 | 0.18 | 0.00 | 87 | 1015.2 |
| 20260904034045 | 68 | 0 | 0.9 | 13.9 | 0.00 | 0.18 | 0.00 | 87 | 1015.1 |
| 20260904033546 | 68 | 225 | 1.7 | 13.9 | 0.00 | 0.18 | 0.00 | 87 | 1015.1 |
| 20260904033107 | 68 | 0 | 4.3 | 16.5 | 0.00 | 0.18 | 0.00 | 87 | 1015.1 |
| 20260904032545 | 68 | 200 | 3.5 | 16.5 | 0.00 | 0.18 | 0.00 | 87 | 1015.2 |
| 20260904032044 | 68 | 223 | 2.6 | 14.8 | 0.00 | 0.18 | 0.00 | 87 | 1015.3 |
| 20260904031556 | 68 | 0 | 0.9 | 12.2 | 0.00 | 0.18 | 0.00 | 87 | 1015.3 |
| 20260904031044 | 68 | 230 | 2.6 | 12.2 | 0.00 | 0.18 | 0.00 | 87 | 1015.5 |
| 20260904030542 | 68 | 0 | 0.9 | 17.4 | 0.00 | 0.18 | 0.00 | 87 | 1015.5 |
| 20260904030056 | 68 | 0 | 3.5 | 17.4 | 0.00 | 0.18 | 0.00 | 87 | 1015.7 |
| 20260904025546 | 68 | 258 | 2.6 | 13.0 | 0.00 | 0.18 | 0.00 | 87 | 1015.9 |
| 20260904025044 | 68 | 229 | 3.5 | 12.2 | 0.00 | 0.18 | 0.00 | 87 | 1015.7 |
| 20260904024622 | 68 | 0 | 0.9 | 13.9 | 0.00 | 0.18 | 0.00 | 87 | 1015.8 |
| 20260904024048 | 68 | 246 | 4.3 | 13.9 | 0.00 | 0.18 | 0.00 | 87 | 1015.8 |
| 20260904023545 | 68 | 247 | 3.5 | 15.6 | 0.00 | 0.18 | 0.00 | 87 | 1015.8 |
| 20260904023108 | 68 | 0 | 4.3 | 17.4 | 0.00 | 0.18 | 0.00 | 87 | 1015.9 |
| 20260904022545 | 68 | 249 | 4.3 | 17.4 | 0.00 | 0.18 | 0.00 | 87 | 1016.0 |
| 20260904022044 | 68 | 0 | 1.7 | 17.4 | 0.00 | 0.18 | 0.00 | 88 | 1016.0 |
| 20260904021603 | 68 | 236 | 0.0 | 12.2 | 0.00 | 0.18 | 0.00 | 88 | 1016.0 |
| 20260904021045 | 68 | 254 | 1.7 | 12.2 | 0.00 | 0.18 | 0.00 | 88 | 1016.1 |
| 20260904020544 | 68 | 249 | 0.9 | 10.4 | 0.00 | 0.18 | 0.00 | 88 | 1016.2 |
| 20260904020104 | 68 | 0 | 1.7 | 19.1 | 0.00 | 0.18 | 0.00 | 88 | 1016.2 |
| 20260904015545 | 68 | 224 | 4.3 | 19.1 | 0.00 | 0.18 | 0.00 | 88 | 1016.3 |
| 20260904015045 | 68 | 0 | 3.5 | 12.2 | 0.00 | 0.18 | 0.00 | 88 | 1016.4 |
| 20260904014612 | 68 | 0 | 1.7 | 12.2 | 0.00 | 0.18 | 0.00 | 88 | 1016.3 |
| 20260904014045 | 68 | 225 | 2.6 | 12.2 | 0.00 | 0.18 | 0.00 | 88 | 1016.3 |
| 20260904013547 | 68 | 231 | 0.9 | 19.1 | 0.00 | 0.18 | 0.00 | 88 | 1016.3 |
| 20260904013106 | 68 | 228 | 1.7 | 19.1 | 0.00 | 0.18 | 0.00 | 88 | 1016.3 |
| 20260904012544 | 68 | 192 | 0.9 | 12.2 | 0.00 | 0.18 | 0.00 | 88 | 1016.4 |
| 20260904012044 | 68 | 248 | 3.5 | 13.0 | 0.00 | 0.18 | 0.00 | 89 | 1016.3 |
| 20260904011603 | 68 | 238 | 2.6 | 13.9 | 0.00 | 0.18 | 0.00 | 89 | 1016.3 |
| 20260904011046 | 68 | 232 | 4.3 | 13.9 | 0.00 | 0.18 | 0.00 | 89 | 1016.4 |
| 20260904010545 | 68 | 249 | 1.7 | 11.3 | 0.00 | 0.18 | 0.00 | 89 | 1016.4 |
| 20260904010106 | 68 | 231 | 2.6 | 12.2 | 0.00 | 0.18 | 0.00 | 89 | 1016.6 |
| 20260904005544 | 68 | 0 | 2.6 | 12.2 | 0.00 | 0.18 | 0.00 | 89 | 1016.6 |
| 20260904005044 | 67 | 0 | 2.6 | 8.7 | 0.00 | 0.18 | 0.00 | 89 | 1016.5 |
| 20260904004604 | 67 | 222 | 3.5 | 13.9 | 0.00 | 0.18 | 0.00 | 89 | 1016.6 |
| 20260904004045 | 67 | 227 | 1.7 | 13.9 | 0.00 | 0.18 | 0.00 | 90 | 1016.6 |
| 20260904003544 | 67 | 0 | 0.9 | 12.2 | 0.00 | 0.18 | 0.00 | 90 | 1016.7 |
| 20260904003110 | 67 | 0 | 2.6 | 12.2 | 0.00 | 0.18 | 0.00 | 90 | 1016.8 |
| 20260904002545 | 67 | 200 | 0.9 | 11.3 | 0.00 | 0.18 | 0.00 | 90 | 1016.9 |
| 20260904002044 | 67 | 217 | 0.9 | 8.7 | 0.00 | 0.18 | 0.00 | 90 | 1017.0 |
| 20260904001610 | 67 | 0 | 0.9 | 8.7 | 0.00 | 0.18 | 0.00 | 90 | 1017.1 |
| 20260904001043 | 67 | 0 | 0.0 | 9.6 | 0.00 | 0.18 | 0.00 | 90 | 1017.1 |
| 20260904000544 | 67 | 223 | 1.7 | 9.6 | 0.00 | 0.18 | 0.00 | 90 | 1017.0 |
| 20260904000117 | 67 | 232 | 1.7 | 8.7 | 0.00 | 0.18 | 0.00 | 90 | 1017.1 |
| 20260903235544 | 67 | 254 | 0.0 | 7.8 | 0.00 | 0.18 | 0.00 | 90 | 1017.1 |
| 20260903235045 | 67 | 0 | 0.0 | 10.4 | 0.00 | 0.18 | 0.00 | 91 | 1017.2 |
| 20260903234556 | 67 | 212 | 0.9 | 10.4 | 0.00 | 0.18 | 0.00 | 91 | 1017.3 |
| 20260903234045 | 67 | 248 | 0.0 | 11.3 | 0.00 | 0.18 | 0.00 | 91 | 1017.4 |
| 20260903233543 | 67 | 0 | 0.9 | 11.3 | 0.00 | 0.18 | 0.00 | 91 | 1017.4 |
| 20260903233121 | 67 | 255 | 0.9 | 11.3 | 0.00 | 0.18 | 0.00 | 91 | 1017.4 |
| 20260903232543 | 67 | 0 | 0.0 | 9.6 | 0.00 | 0.18 | 0.00 | 91 | 1017.4 |
| 20260903232043 | 67 | 231 | 2.6 | 12.2 | 0.00 | 0.18 | 0.00 | 90 | 1017.4 |
| 20260903231604 | 67 | 0 | 0.9 | 12.2 | 0.00 | 0.18 | 0.00 | 90 | 1017.4 |
| 20260903231045 | 67 | 0 | 2.6 | 11.3 | 0.00 | 0.18 | 0.00 | 90 | 1017.5 |
| 20260903230545 | 67 | 242 | 1.7 | 10.4 | 0.00 | 0.18 | 0.00 | 90 | 1017.6 |
| 20260903230112 | 67 | 230 | 0.0 | 8.7 | 0.00 | 0.18 | 0.00 | 90 | 1017.5 |
| 20260903225545 | 67 | 238 | 0.9 | 8.7 | 0.00 | 0.18 | 0.00 | 90 | 1017.6 |
| 20260903225044 | 67 | 0 | 0.0 | 7.0 | 0.00 | 0.18 | 0.00 | 89 | 1017.8 |
| 20260903224630 | 67 | 0 | 0.0 | 7.0 | 0.00 | 0.18 | 0.00 | 89 | 1017.9 |
| 20260903224044 | 67 | 0 | 0.0 | 7.8 | 0.00 | 0.18 | 0.00 | 90 | 1017.8 |
| 20260903223545 | 67 | 0 | 0.0 | 7.8 | 0.00 | 0.18 | 0.00 | 90 | 1017.9 |
| 20260903223135 | 67 | 0 | 0.0 | 7.0 | 0.00 | 0.18 | 0.00 | 90 | 1018.0 |
| 20260903222545 | 67 | 237 | 0.0 | 7.0 | 0.00 | 0.18 | 0.00 | 90 | 1018.1 |
| 20260903222044 | 67 | 242 | 0.0 | 7.0 | 0.00 | 0.18 | 0.00 | 90 | 1018.0 |
| 20260903221559 | 67 | 0 | 0.0 | 7.0 | 0.00 | 0.18 | 0.00 | 90 | 1018.2 |
| 20260903221049 | 66 | 0 | 0.9 | 7.0 | 0.00 | 0.18 | 0.00 | 90 | 1018.1 |
| 20260903220544 | 66 | 0 | 0.0 | 5.2 | 0.00 | 0.18 | 0.00 | 91 | 1018.1 |
| 20260903220105 | 66 | 0 | 0.0 | 5.2 | 0.00 | 0.18 | 0.00 | 91 | 1018.0 |
| 20260903215545 | 66 | 0 | 0.0 | 7.8 | 0.00 | 0.18 | 0.18 | 91 | 1018.1 |
| 20260903215044 | 66 | 0 | 0.0 | 7.8 | 0.00 | 0.18 | 0.18 | 91 | 1018.4 |
| 20260903214606 | 66 | 0 | 0.0 | 7.8 | 0.00 | 0.18 | 0.18 | 91 | 1018.3 |
| 20260903214044 | 66 | 0 | 0.0 | 1.7 | 0.00 | 0.18 | 0.18 | 90 | 1018.4 |
| 20260903213546 | 66 | 0 | 0.0 | 3.5 | 0.00 | 0.18 | 0.18 | 90 | 1018.4 |
| 20260903213111 | 66 | 0 | 0.0 | 3.5 | 0.00 | 0.18 | 0.18 | 90 | 1018.4 |
| 20260903212541 | 66 | 224 | 0.0 | 0.0 | 0.00 | 0.18 | 0.18 | 90 | 1018.4 |
| 20260903212045 | 66 | 0 | 0.0 | 0.0 | 0.00 | 0.18 | 0.18 | 89 | 1018.5 |
| 20260903211601 | 66 | 0 | 0.0 | 0.0 | 0.00 | 0.18 | 0.18 | 89 | 1018.5 |
| 20260903211045 | 66 | 0 | 0.0 | 0.0 | 0.00 | 0.18 | 0.18 | 88 | 1018.5 |
| 20260903210546 | 66 | 0 | 0.0 | 1.7 | 0.00 | 0.18 | 0.18 | 88 | 1018.5 |
| 20260903210144 | 67 | 0 | 0.0 | 1.7 | 0.00 | 0.18 | 0.18 | 87 | 1018.7 |
| 20260903205544 | 67 | 0 | 0.0 | 7.0 | 0.00 | 0.18 | 0.18 | 87 | 1018.6 |
| 20260903205043 | 67 | 0 | 0.0 | 7.0 | 0.00 | 0.18 | 0.18 | 86 | 1018.7 |
| 20260903204607 | 67 | 0 | 0.0 | 7.0 | 0.00 | 0.18 | 0.18 | 86 | 1018.7 |
| 20260903204049 | 68 | 0 | 0.0 | 4.3 | 0.00 | 0.18 | 0.18 | 85 | 1018.7 |
| 20260903203543 | 68 | 0 | 0.0 | 12.2 | 0.00 | 0.18 | 0.18 | 85 | 1018.7 |
| 20260903203100 | 68 | 0 | 0.0 | 12.2 | 0.00 | 0.18 | 0.18 | 85 | 1018.7 |
| 20260903202544 | 68 | 232 | 0.9 | 12.2 | 0.00 | 0.18 | 0.18 | 86 | 1018.8 |
| 20260903202043 | 68 | 234 | 0.0 | 7.0 | 0.00 | 0.18 | 0.18 | 86 | 1018.7 |
| 20260903201601 | 68 | 0 | 0.0 | 7.0 | 0.00 | 0.18 | 0.18 | 86 | 1018.3 |
| 20260903201042 | 68 | 0 | 0.0 | 0.0 | 0.00 | 0.18 | 0.18 | 86 | 1018.5 |
| 20260903200542 | 68 | 0 | 0.0 | 0.0 | 0.00 | 0.18 | 0.18 | 86 | 1018.5 |
| 20260903200058 | 68 | 0 | 0.0 | 0.0 | 0.00 | 0.18 | 0.18 | 86 | 1018.4 |
| 20260903195543 | 68 | 0 | 0.0 | 0.0 | 0.00 | 0.18 | 0.18 | 87 | 1018.5 |
| 20260903195042 | 68 | 0 | 0.0 | 0.0 | 0.00 | 0.18 | 0.18 | 87 | 1018.3 |
| 20260903194606 | 68 | 0 | 0.0 | 0.0 | 0.00 | 0.18 | 0.18 | 87 | 1018.4 |
| 20260903194042 | 68 | 0 | 0.0 | 0.0 | 0.00 | 0.18 | 0.18 | 86 | 1018.5 |
| 20260903193543 | 68 | 0 | 0.0 | 0.0 | 0.00 | 0.18 | 0.18 | 86 | 1018.3 |
| 20260903193101 | 68 | 0 | 0.0 | 0.0 | 0.00 | 0.18 | 0.18 | 86 | 1018.2 |
| 20260903192543 | 68 | 0 | 0.0 | 0.0 | 0.00 | 0.18 | 0.18 | 86 | 1018.2 |
| 20260903192042 | 68 | 0 | 0.0 | 0.0 | 0.00 | 0.18 | 0.18 | 86 | 1018.3 |
| 20260903191602 | 68 | 0 | 0.0 | 0.0 | 0.00 | 0.18 | 0.18 | 86 | 1018.4 |
| 20260903191046 | 68 | 0 | 0.0 | 0.0 | 0.00 | 0.18 | 0.18 | 85 | 1018.3 |
| 20260903190543 | 68 | 0 | 0.0 | 0.0 | 0.00 | 0.18 | 0.18 | 85 | 1018.3 |
| 20260903190107 | 68 | 0 | 0.0 | 2.6 | 0.00 | 0.18 | 0.18 | 85 | 1018.4 |
| 20260903185542 | 68 | 0 | 0.0 | 3.5 | 0.00 | 0.18 | 0.18 | 85 | 1018.5 |
| 20260903185042 | 68 | 0 | 0.0 | 3.5 | 0.00 | 0.18 | 0.18 | 85 | 1018.7 |
| 20260903184606 | 68 | 0 | 0.0 | 3.5 | 0.00 | 0.18 | 0.18 | 84 | 1018.8 |
| 20260903184042 | 68 | 0 | 0.0 | 7.8 | 0.00 | 0.18 | 0.18 | 84 | 1018.9 |
| 20260903183542 | 68 | 0 | 0.9 | 7.8 | 0.00 | 0.18 | 0.18 | 84 | 1018.6 |
| 20260903183112 | 69 | 0 | 0.0 | 3.5 | 0.00 | 0.18 | 0.18 | 84 | 1018.5 |
| 20260903182543 | 69 | 0 | 0.0 | 4.3 | 0.00 | 0.18 | 0.18 | 84 | 1018.3 |
| 20260903182042 | 69 | 0 | 0.0 | 4.3 | 0.00 | 0.18 | 0.18 | 83 | 1018.3 |
| 20260903181603 | 69 | 0 | 0.0 | 2.6 | 0.00 | 0.18 | 0.18 | 83 | 1018.4 |
| 20260903181042 | 69 | 0 | 0.0 | 2.6 | 0.00 | 0.18 | 0.18 | 83 | 1018.2 |
| 20260903180543 | 69 | 0 | 0.0 | 6.1 | 0.00 | 0.18 | 0.18 | 82 | 1018.1 |
| 20260903180109 | 69 | 0 | 0.0 | 6.1 | 0.00 | 0.18 | 0.18 | 82 | 1018.1 |
| 20260903175543 | 69 | 0 | 0.0 | 6.1 | 0.00 | 0.18 | 0.18 | 82 | 1018.0 |
| 20260903175043 | 69 | 0 | 0.0 | 6.1 | 0.00 | 0.18 | 0.18 | 83 | 1018.1 |
| 20260903174558 | 69 | 221 | 0.0 | 0.0 | 0.00 | 0.18 | 0.18 | 84 | 1018.2 |
| 20260903174043 | 69 | 0 | 0.0 | 0.0 | 0.00 | 0.18 | 0.18 | 84 | 1018.1 |
| 20260903173544 | 69 | 0 | 0.0 | 7.0 | 0.00 | 0.18 | 0.18 | 83 | 1018.1 |
| 20260903173104 | 69 | 0 | 0.0 | 7.0 | 0.00 | 0.18 | 0.18 | 83 | 1018.3 |
| 20260903172542 | 69 | 0 | 0.9 | 7.0 | 0.00 | 0.18 | 0.18 | 83 | 1018.3 |
| 20260903172042 | 69 | 0 | 0.0 | 0.0 | 0.00 | 0.18 | 0.18 | 83 | 1018.4 |
| 20260903171614 | 69 | 0 | 0.0 | 0.0 | 0.00 | 0.18 | 0.18 | 83 | 1018.3 |
| 20260903171043 | 69 | 0 | 0.0 | 5.2 | 0.00 | 0.18 | 0.18 | 82 | 1018.2 |
| 20260903170546 | 69 | 0 | 0.0 | 7.0 | 0.00 | 0.18 | 0.18 | 82 | 1018.1 |
| 20260903170109 | 70 | 0 | 0.0 | 9.6 | 0.00 | 0.18 | 0.18 | 81 | 1018.1 |
| 20260903165542 | 70 | 239 | 1.7 | 13.9 | 0.00 | 0.18 | 0.18 | 80 | 1018.1 |
| 20260903165042 | 70 | 213 | 1.7 | 13.9 | 0.00 | 0.18 | 0.18 | 80 | 1017.9 |
| 20260903164609 | 70 | 0 | 0.9 | 13.9 | 0.00 | 0.18 | 0.18 | 81 | 1018.0 |
| 20260903164043 | 70 | 0 | 0.9 | 13.9 | 0.00 | 0.18 | 0.18 | 80 | 1018.0 |
| 20260903163545 | 70 | 207 | 2.6 | 10.4 | 0.00 | 0.18 | 0.18 | 81 | 1017.9 |
| 20260903163104 | 70 | 0 | 0.0 | 9.6 | 0.00 | 0.18 | 0.18 | 81 | 1017.9 |
| 20260903162542 | 70 | 211 | 2.6 | 14.8 | 0.00 | 0.18 | 0.18 | 80 | 1017.9 |
| 20260903162041 | 70 | 229 | 4.3 | 14.8 | 0.00 | 0.18 | 0.18 | 80 | 1018.0 |
| 20260903161604 | 70 | 249 | 1.7 | 12.2 | 0.00 | 0.18 | 0.18 | 80 | 1018.1 |
| 20260903161043 | 70 | 228 | 4.3 | 12.2 | 0.00 | 0.18 | 0.18 | 80 | 1018.1 |
| 20260903160543 | 70 | 208 | 2.6 | 14.8 | 0.00 | 0.18 | 0.18 | 80 | 1017.9 |
| 20260903160109 | 70 | 0 | 3.5 | 14.8 | 0.00 | 0.18 | 0.18 | 80 | 1017.9 |
| 20260903155542 | 70 | 237 | 3.5 | 14.8 | 0.00 | 0.18 | 0.18 | 79 | 1017.9 |
| 20260903155042 | 71 | 241 | 4.3 | 16.5 | 0.00 | 0.18 | 0.18 | 79 | 1018.1 |
| 20260903154609 | 71 | 236 | 2.6 | 16.5 | 0.00 | 0.18 | 0.18 | 78 | 1018.1 |
| 20260903154047 | 71 | 183 | 6.1 | 18.2 | 0.00 | 0.18 | 0.18 | 78 | 1018.1 |
| 20260903153544 | 70 | 229 | 3.5 | 18.2 | 0.00 | 0.18 | 0.18 | 78 | 1018.2 |
| 20260903153107 | 70 | 216 | 5.2 | 15.6 | 0.00 | 0.18 | 0.18 | 79 | 1018.3 |
| 20260903152543 | 70 | 240 | 5.2 | 15.6 | 0.00 | 0.18 | 0.18 | 80 | 1018.2 |
| 20260903152042 | 70 | 0 | 0.9 | 14.8 | 0.00 | 0.18 | 0.18 | 80 | 1018.1 |
| 20260903151604 | 70 | 215 | 4.3 | 14.8 | 0.00 | 0.18 | 0.18 | 79 | 1018.1 |
| 20260903151046 | 71 | 210 | 3.5 | 14.8 | 0.00 | 0.18 | 0.18 | 78 | 1018.2 |
| 20260903150545 | 70 | 206 | 4.3 | 14.8 | 0.00 | 0.18 | 0.18 | 80 | 1018.2 |
| 20260903150108 | 69 | 212 | 0.9 | 13.0 | 0.00 | 0.18 | 0.18 | 81 | 1018.2 |
| 20260903145542 | 69 | 0 | 0.9 | 10.4 | 0.00 | 0.18 | 0.18 | 81 | 1018.2 |
| 20260903145045 | 70 | 231 | 0.9 | 13.0 | 0.00 | 0.18 | 0.18 | 80 | 1018.3 |
| 20260903144559 | 70 | 0 | 0.9 | 13.9 | 0.00 | 0.18 | 0.18 | 81 | 1018.2 |
| 20260903144044 | 70 | 248 | 5.2 | 13.9 | 0.00 | 0.18 | 0.18 | 80 | 1018.1 |
| 20260903143542 | 70 | 230 | 3.5 | 16.5 | 0.00 | 0.18 | 0.18 | 81 | 1018.2 |
| 20260903143109 | 69 | 169 | 6.1 | 16.5 | 0.00 | 0.18 | 0.18 | 82 | 1018.1 |
| 20260903142543 | 69 | 0 | 2.6 | 16.5 | 0.00 | 0.18 | 0.18 | 82 | 1018.1 |
| 20260903142046 | 69 | 0 | 3.5 | 16.5 | 0.00 | 0.18 | 0.18 | 82 | 1018.1 |
| 20260903141611 | 69 | 236 | 3.5 | 16.5 | 0.00 | 0.18 | 0.18 | 82 | 1018.1 |
| 20260903141042 | 69 | 0 | 2.6 | 13.0 | 0.00 | 0.18 | 0.18 | 83 | 1018.2 |
| 20260903140542 | 69 | 244 | 2.6 | 13.0 | 0.00 | 0.18 | 0.18 | 83 | 1018.2 |
| 20260903140115 | 69 | 0 | 0.0 | 17.4 | 0.00 | 0.18 | 0.18 | 83 | 1018.2 |
| 20260903135542 | 69 | 227 | 2.6 | 17.4 | 0.00 | 0.18 | 0.18 | 82 | 1018.3 |
| 20260903135043 | 69 | 0 | 3.5 | 13.0 | 0.00 | 0.18 | 0.18 | 84 | 1018.3 |
| 20260903134559 | 69 | 0 | 4.3 | 15.6 | 0.00 | 0.18 | 0.18 | 83 | 1018.2 |
| 20260903134043 | 68 | 221 | 4.3 | 19.1 | 0.00 | 0.18 | 0.18 | 83 | 1018.0 |
| 20260903133543 | 69 | 243 | 4.3 | 19.1 | 0.00 | 0.18 | 0.18 | 83 | 1018.2 |
| 20260903133109 | 69 | 232 | 6.1 | 19.1 | 0.00 | 0.18 | 0.18 | 84 | 1018.2 |
| 20260903132547 | 68 | 0 | 6.1 | 19.1 | 0.00 | 0.18 | 0.18 | 84 | 1018.3 |
| 20260903132047 | 69 | 257 | 5.2 | 17.4 | 0.00 | 0.18 | 0.18 | 85 | 1018.3 |
| 20260903131611 | 68 | 200 | 5.2 | 17.4 | 0.00 | 0.18 | 0.18 | 85 | 1018.3 |
| 20260903131045 | 68 | 248 | 5.2 | 16.5 | 0.00 | 0.18 | 0.18 | 86 | 1018.3 |
| 20260903130546 | 68 | 248 | 6.1 | 18.2 | 0.00 | 0.18 | 0.18 | 87 | 1018.3 |
| 20260903130106 | 68 | 228 | 7.0 | 18.2 | 0.00 | 0.18 | 0.18 | 86 | 1018.4 |
| 20260903125546 | 68 | 274 | 6.1 | 17.4 | 0.00 | 0.18 | 0.18 | 87 | 1018.3 |
| 20260903125047 | 67 | 0 | 5.2 | 17.4 | 0.00 | 0.18 | 0.18 | 89 | 1018.1 |
| 20260903124601 | 67 | 242 | 1.7 | 18.2 | 0.00 | 0.18 | 0.18 | 90 | 1018.4 |
| 20260903124046 | 66 | 0 | 1.7 | 18.2 | 0.00 | 0.18 | 0.18 | 90 | 1018.3 |
| 20260903123546 | 66 | 244 | 4.3 | 16.5 | 0.00 | 0.18 | 0.18 | 90 | 1018.1 |
| 20260903123107 | 66 | 214 | 6.1 | 13.9 | 0.00 | 0.18 | 0.18 | 91 | 1018.1 |
| 20260903122546 | 65 | 212 | 1.7 | 16.5 | 0.00 | 0.18 | 0.18 | 92 | 1018.0 |
| 20260903122046 | 65 | 251 | 4.3 | 16.5 | 0.00 | 0.18 | 0.18 | 93 | 1018.1 |
| 20260903121625 | 65 | 205 | 3.5 | 15.6 | 0.00 | 0.18 | 0.18 | 93 | 1018.1 |
| 20260903121044 | 64 | 248 | 5.2 | 15.6 | 0.00 | 0.18 | 0.18 | 93 | 1018.1 |
| 20260903120549 | 64 | 217 | 4.3 | 14.8 | 0.00 | 0.18 | 0.18 | 93 | 1018.1 |
| 20260903120112 | 64 | 224 | 1.7 | 13.9 | 0.00 | 0.18 | 0.18 | 94 | 1018.1 |
| 20260903115547 | 64 | 0 | 2.6 | 13.9 | 0.00 | 0.18 | 0.18 | 94 | 1018.2 |
| 20260903115046 | 63 | 0 | 1.7 | 16.5 | 0.00 | 0.18 | 0.18 | 94 | 1018.1 |
| 20260903114604 | 63 | 249 | 0.0 | 16.5 | 0.00 | 0.18 | 0.18 | 94 | 1018.2 |
| 20260903114047 | 63 | 0 | 4.3 | 14.8 | 0.00 | 0.18 | 0.18 | 94 | 1018.3 |
| 20260903113546 | 63 | 227 | 0.9 | 10.4 | 0.00 | 0.18 | 0.18 | 94 | 1018.3 |
| 20260903113057 | 63 | 0 | 0.9 | 10.4 | 0.00 | 0.18 | 0.18 | 94 | 1018.2 |
| 20260903112546 | 63 | 0 | 2.6 | 10.4 | 0.00 | 0.18 | 0.18 | 94 | 1018.3 |
| 20260903112046 | 63 | 0 | 0.0 | 12.2 | 0.00 | 0.18 | 0.18 | 94 | 1018.2 |
| 20260903111557 | 63 | 212 | 0.9 | 12.2 | 0.00 | 0.18 | 0.18 | 94 | 1018.3 |
| 20260903111047 | 63 | 232 | 0.9 | 9.6 | 0.00 | 0.18 | 0.18 | 94 | 1018.3 |
| 20260903110549 | 62 | 0 | 1.7 | 9.6 | 0.00 | 0.18 | 0.18 | 94 | 1018.2 |
| 20260903110104 | 62 | 0 | 0.0 | 10.4 | 0.00 | 0.18 | 0.18 | 94 | 1018.3 |
| 20260903105546 | 62 | 0 | 2.6 | 10.4 | 0.00 | 0.18 | 0.18 | 94 | 1018.5 |
| 20260903105047 | 62 | 0 | 1.7 | 13.0 | 0.00 | 0.18 | 0.18 | 94 | 1018.4 |
| 20260903104603 | 62 | 236 | 1.7 | 13.9 | 0.00 | 0.18 | 0.18 | 94 | 1018.4 |
| 20260903104045 | 62 | 200 | 3.5 | 13.9 | 0.00 | 0.18 | 0.18 | 94 | 1018.4 |
| 20260903103545 | 62 | 198 | 1.7 | 10.4 | 0.00 | 0.18 | 0.18 | 94 | 1018.4 |
| 20260903103056 | 62 | 0 | 0.0 | 7.8 | 0.00 | 0.18 | 0.18 | 94 | 1018.3 |
| 20260903102547 | 62 | 0 | 0.0 | 9.6 | 0.00 | 0.18 | 0.18 | 94 | 1018.3 |
| 20260903102046 | 62 | 0 | 0.9 | 9.6 | 0.00 | 0.18 | 0.18 | 93 | 1018.2 |
| 20260903101605 | 62 | 242 | 1.7 | 11.3 | 0.05 | 0.18 | 0.18 | 94 | 1018.3 |
| 20260903101048 | 61 | 229 | 1.7 | 11.3 | 0.05 | 0.18 | 0.18 | 94 | 1018.4 |
| 20260903100546 | 61 | 0 | 0.9 | 10.4 | 0.05 | 0.18 | 0.18 | 94 | 1018.4 |
| 20260903100104 | 61 | 0 | 0.0 | 8.7 | 0.05 | 0.18 | 0.18 | 94 | 1018.5 |
| 20260903095546 | 61 | 236 | 1.7 | 8.7 | 0.05 | 0.18 | 0.18 | 94 | 1018.6 |
| 20260903095045 | 61 | 248 | 2.6 | 8.7 | 0.05 | 0.18 | 0.18 | 94 | 1018.4 |
| 20260903094608 | 61 | 0 | 0.0 | 9.6 | 0.07 | 0.18 | 0.18 | 94 | 1018.3 |
| 20260903094043 | 61 | 0 | 0.0 | 9.6 | 0.09 | 0.18 | 0.18 | 94 | 1018.5 |
| 20260903093543 | 61 | 0 | 0.9 | 9.6 | 0.14 | 0.18 | 0.18 | 94 | 1018.2 |
| 20260903093108 | 61 | 0 | 0.9 | 7.8 | 0.17 | 0.18 | 0.18 | 93 | 1018.3 |
| 20260903092546 | 61 | 246 | 0.9 | 7.8 | 0.18 | 0.18 | 0.18 | 93 | 1018.2 |
| 20260903092047 | 61 | 0 | 0.0 | 7.0 | 0.16 | 0.16 | 0.16 | 92 | 1018.4 |
| 20260903091606 | 62 | 0 | 0.0 | 7.8 | 0.12 | 0.12 | 0.12 | 92 | 1018.4 |
| 20260903091046 | 62 | 0 | 0.0 | 7.8 | 0.12 | 0.12 | 0.12 | 93 | 1018.4 |
| 20260903090543 | 62 | 0 | 0.0 | 7.0 | 0.12 | 0.12 | 0.12 | 93 | 1018.4 |
| 20260903090109 | 61 | 0 | 0.9 | 7.0 | 0.12 | 0.12 | 0.12 | 93 | 1018.4 |
| 20260903085549 | 61 | 0 | 0.0 | 7.8 | 0.12 | 0.12 | 0.12 | 92 | 1018.3 |
| 20260903085046 | 61 | 0 | 0.0 | 7.8 | 0.12 | 0.12 | 0.12 | 91 | 1018.4 |
| 20260903084602 | 61 | 226 | 0.9 | 9.6 | 0.11 | 0.11 | 0.11 | 90 | 1018.4 |
| 20260903084043 | 62 | 0 | 0.9 | 13.9 | 0.08 | 0.08 | 0.08 | 87 | 1018.5 |
| 20260903083542 | 62 | 224 | 3.5 | 13.9 | 0.03 | 0.03 | 0.03 | 85 | 1018.4 |
| 20260903083056 | 63 | 200 | 2.6 | 13.9 | 0.00 | 0.00 | 0.00 | 83 | 1018.7 |
| 20260903082542 | 64 | 0 | 0.9 | 8.7 | 0.00 | 0.00 | 0.00 | 81 | 1018.5 |
| 20260903082046 | 65 | 0 | 0.0 | 12.2 | 0.00 | 0.00 | 0.00 | 79 | 1018.3 |
| 20260903081604 | 65 | 209 | 0.9 | 12.2 | 0.00 | 0.00 | 0.00 | 80 | 1018.3 |
| 20260903081043 | 64 | 227 | 2.6 | 12.2 | 0.00 | 0.00 | 0.00 | 80 | 1018.2 |
| 20260903080542 | 64 | 211 | 0.9 | 13.9 | 0.00 | 0.00 | 0.00 | 80 | 1018.1 |
| 20260903075546 | 65 | 248 | 4.3 | 20.0 | 0.00 | 0.00 | 0.00 | 74 | 1018.2 |
| 20260903075045 | 66 | 249 | 2.6 | 20.0 | 0.00 | 0.00 | 0.00 | 69 | 1018.0 |
| 20260903074607 | 66 | 224 | 0.9 | 13.9 | 0.00 | 0.00 | 0.00 | 69 | 1018.2 |
| 20260903074045 | 66 | 0 | 2.6 | 15.6 | 0.00 | 0.00 | 0.00 | 69 | 1018.2 |
| 20260903073544 | 66 | 234 | 2.6 | 15.6 | 0.00 | 0.00 | 0.00 | 69 | 1018.3 |
| 20260903073106 | 66 | 0 | 1.7 | 10.4 | 0.00 | 0.00 | 0.00 | 68 | 1018.2 |
| 20260903072544 | 66 | 0 | 0.9 | 11.3 | 0.00 | 0.00 | 0.00 | 69 | 1018.1 |
| 20260903072045 | 66 | 0 | 1.7 | 13.0 | 0.00 | 0.00 | 0.00 | 68 | 1018.0 |
| 20260903071609 | 66 | 258 | 2.6 | 15.6 | 0.00 | 0.00 | 0.00 | 68 | 1018.0 |
| 20260903071047 | 66 | 223 | 3.5 | 15.6 | 0.00 | 0.00 | 0.00 | 68 | 1018.2 |
| 20260903070544 | 66 | 0 | 1.7 | 12.2 | 0.00 | 0.00 | 0.00 | 68 | 1018.2 |
| 20260903070107 | 66 | 234 | 2.6 | 12.2 | 0.00 | 0.00 | 0.00 | 68 | 1018.2 |
| 20260903065545 | 66 | 0 | 0.0 | 12.2 | 0.00 | 0.00 | 0.00 | 68 | 1018.1 |
| 20260903065043 | 66 | 0 | 0.0 | 12.2 | 0.00 | 0.00 | 0.00 | 68 | 1018.3 |
| 20260903064602 | 65 | 0 | 2.6 | 10.4 | 0.00 | 0.00 | 0.00 | 68 | 1018.2 |
| 20260903064044 | 65 | 0 | 2.6 | 18.2 | 0.00 | 0.00 | 0.00 | 68 | 1018.2 |
| 20260903063545 | 65 | 0 | 0.9 | 18.2 | 0.00 | 0.00 | 0.00 | 68 | 1018.2 |
| 20260903063103 | 65 | 190 | 2.6 | 18.2 | 0.00 | 0.00 | 0.00 | 69 | 1018.1 |